{"data":{"norad_id":48577,"epoch":"2026-05-25T05:11:53.279232Z","epoch_age_seconds":46448,"freshness":"FRESH","line1":"1 48577U 21041AA  26145.21658888  .00009265  00000+0  30998-3 0  9996","line2":"2 48577  53.1587 130.9824 0001237  92.9460 267.1683 15.31697960276995","mean_motion":15.3169796,"eccentricity":0.0001237,"inclination_deg":53.1587,"raan_deg":130.9824,"arg_perigee_deg":92.946,"mean_anomaly_deg":267.1683,"bstar":0.00030998,"rev_number":27699,"period_min":94.013313173049,"perigee_km":469.8988695297,"apogee_km":471.59328320279,"semimajor_km":6848.8830763662,"source":"CELESTRAK","updated_at":"2026-05-25T13:38:16.747892Z"}}